FW7254 Weather Reports


Display with metric or nautical units.
time (UTC)temp
F
wind
direction
speed
MPH
gust
MPH
rain 1hr
in
rain 24hr
in
rain mn
in
humidity
%
barometer
mb
20260906083317 68 19 0.0 0.0 0.00 0.00 1.46 93 1011.7
20260906081825 68 19 1.0 0.0 0.00 0.00 1.42 93 1011.5
20260906080334 68 19 0.0 0.0 0.00 0.00 1.37 93 1011.9
20260906074816 68 21 1.0 0.0 0.00 0.00 1.34 93 1011.9
20260906073321 68 21 1.0 0.0 0.00 0.00 1.31 93 1011.7
20260906071823 68 21 1.0 0.0 0.00 0.00 1.29 93 1011.4
20260906070327 68 21 1.0 0.0 0.00 0.00 1.28 93 1011.6
20260906064816 67 20 1.0 0.0 0.00 0.00 1.27 93 1011.6
20260906063322 67 19 1.0 0.0 0.00 0.00 1.26 93 1011.8
20260906061823 67 20 1.0 0.0 0.00 0.00 1.24 93 1012.1
20260906060334 67 21 0.0 0.0 0.00 0.00 1.21 93 1012.3
20260906054813 67 21 0.0 0.0 0.00 0.00 1.17 93 1012.4
20260906053318 67 21 0.0 0.0 0.00 0.00 1.13 93 1012.2
20260906051824 67 21 1.0 0.0 0.00 0.00 1.07 93 1012.2
20260906050328 67 21 0.0 0.0 0.00 0.00 1.05 93 1012.0
20260906044813 67 20 3.0 0.0 0.00 0.00 1.03 93 1012.2
20260906043320 67 22 1.0 0.0 0.00 0.00 1.00 92 1012.4
20260906041828 67 21 2.0 0.0 0.00 0.00 0.96 93 1012.6
20260906040333 67 21 1.0 0.0 0.00 0.00 0.93 92 1012.7
20260906034813 67 22 1.0 0.0 0.00 0.00 0.89 92 1013.0
20260906033338 67 21 2.0 0.0 0.00 0.00 0.83 92 1013.0
20260906031825 67 21 1.0 0.0 0.00 0.00 0.76 92 1013.2
20260906030329 67 21 0.0 0.0 0.00 0.00 0.69 92 1013.4
20260906024816 67 21 1.0 0.0 0.00 0.00 0.67 92 1013.5
20260906023314 67 22 1.0 0.0 0.00 0.00 0.65 92 1013.6
20260906021823 67 21 1.0 0.0 0.00 0.00 0.63 92 1013.8
20260906020313 67 21 1.0 0.0 0.00 0.00 0.61 92 1014.1
20260906014839 67 20 1.0 0.0 0.00 0.00 0.57 92 1014.6
20260906013321 67 22 1.0 0.0 0.00 0.00 0.52 92 1014.4
20260906011828 67 21 2.0 0.0 0.00 0.00 0.50 92 1014.4
20260906010334 67 22 2.0 0.0 0.00 0.00 0.46 92 1014.2
20260906004830 67 22 2.0 0.0 0.00 0.00 0.44 92 1014.0
20260906003315 67 21 2.0 0.0 0.00 0.00 0.43 92 1014.1
20260906001843 67 22 2.0 0.0 0.00 0.00 0.43 92 1014.4
20260906000348 67 22 1.0 0.0 0.00 0.00 0.39 92 1014.7
20260905234854 67 22 1.0 0.0 0.00 0.00 0.33 92 1014.7
20260905233334 67 22 1.0 0.0 0.00 0.00 0.28 92 1014.8
20260905231815 67 21 1.0 0.0 0.00 0.00 0.23 92 1014.9
20260905230320 67 21 1.0 0.0 0.00 0.00 0.21 91 1014.6
20260905224828 67 22 1.0 0.0 0.00 0.00 0.19 91 1014.6
20260905223333 67 22 2.0 0.0 0.00 0.00 0.17 91 1014.4
20260905221814 67 21 1.0 0.0 0.00 0.00 0.16 91 1014.6
20260905220322 67 22 2.0 0.0 0.00 0.00 0.14 91 1014.3
20260905214829 67 22 1.0 0.0 0.00 0.00 0.11 90 1014.2
20260905213335 67 22 0.0 0.0 0.00 0.00 0.09 90 1014.4
20260905211815 68 22 0.0 0.0 0.00 0.00 0.06 88 1014.5
20260905210324 68 22 0.0 0.0 0.00 0.00 0.04 87 1014.4
20260905204833 69 22 0.0 0.0 0.00 0.00 0.02 86 1014.3
20260905203336 70 22 1.0 0.0 0.00 0.00 0.01 83 1014.0
20260905201818 70 22 1.0 0.0 0.00 0.00 0.00 82 1013.8
20260905200326 70 22 1.0 0.0 0.00 0.00 0.00 83 1013.7
20260905194826 70 22 1.0 0.0 0.00 0.00 0.00 83 1013.8
20260905193333 70 22 1.0 0.0 0.00 0.00 0.00 83 1013.6
20260905191814 71 21 0.0 0.0 0.00 0.00 0.00 83 1013.7
20260905190321 71 21 0.0 0.0 0.00 0.00 0.00 83 1013.7
20260905184828 71 22 0.0 0.0 0.00 0.00 0.00 83 1013.9
20260905183326 71 21 0.0 0.0 0.00 0.00 0.00 83 1013.8
20260905181839 71 22 1.0 0.0 0.00 0.00 0.00 83 1013.8
20260905180324 71 21 0.0 0.0 0.00 0.00 0.00 84 1014.1
20260905174813 71 21 0.0 0.0 0.00 0.00 0.00 84 1013.8
20260905173339 71 22 0.0 0.0 0.00 0.00 0.00 84 1013.9
20260905171826 71 21 0.0 0.0 0.00 0.00 0.00 84 1014.1
20260905170332 71 22 0.0 0.0 0.00 0.00 0.00 84 1014.0
20260905164831 71 22 0.0 0.0 0.00 0.00 0.00 84 1014.0
20260905163314 71 22 0.0 0.0 0.00 0.00 0.00 85 1014.0
20260905161820 72 21 0.0 0.0 0.00 0.00 0.00 86 1014.1
20260905160325 72 22 0.0 0.0 0.00 0.00 0.00 86 1014.1
20260905154814 72 22 0.0 0.0 0.00 0.00 0.00 86 1014.1
20260905153313 72 21 0.0 0.0 0.00 0.00 0.00 86 1014.2
20260905151821 72 22 0.0 0.0 0.00 0.00 0.00 86 1014.2
20260905150326 72 22 0.0 0.0 0.00 0.00 0.69 85 1014.3
20260905144815 72 22 0.0 0.0 0.00 0.00 0.69 84 1014.2
20260905143320 72 22 0.0 0.0 0.00 0.00 0.69 84 1014.3
20260905141822 72 22 0.0 0.0 0.00 0.00 0.69 83 1014.3
20260905140354 72 22 0.0 0.0 0.00 0.00 0.69 82 1014.1
20260905134835 72 22 0.0 0.0 0.00 0.00 0.69 82 1014.2
20260905133315 72 22 0.0 0.0 0.00 0.00 0.69 82 1014.4
20260905131822 73 22 0.0 0.0 0.00 0.00 0.69 81 1014.5
20260905130329 73 22 0.0 0.0 0.00 0.00 0.69 81 1014.7
20260905124814 73 21 0.0 0.0 0.00 0.00 0.69 79 1014.6
20260905123313 73 22 0.0 0.0 0.00 0.00 0.69 77 1014.7
20260905121820 73 21 0.0 0.0 0.00 0.00 0.69 75 1014.5
20260905120322 73 22 0.0 0.0 0.00 0.00 0.69 74 1014.3
20260905114828 73 22 0.0 0.0 0.00 0.00 0.69 74 1014.2
20260905113333 74 22 0.0 0.0 0.00 0.00 0.69 74 1014.1
20260905111818 74 22 0.0 0.0 0.00 0.00 0.69 73 1013.9
20260905110324 74 22 0.0 0.0 0.00 0.00 0.69 74 1013.7
20260905104830 75 22 0.0 0.0 0.00 0.00 0.69 75 1013.7
20260905103335 75 21 0.0 0.0 0.00 0.00 0.69 74 1013.3
20260905101843 75 22 0.0 0.0 0.00 0.00 0.69 73 1012.8
20260905100325 75 22 0.0 0.0 0.00 0.00 0.69 73 1012.7
20260905094827 76 22 0.0 0.0 0.00 0.00 0.69 74 1012.5
20260905093351 76 22 0.0 0.0 0.00 0.00 0.69 77 1012.3
20260905091838 76 21 0.0 0.0 0.00 0.00 0.69 79 1012.2
20260905090335 76 21 0.0 0.0 0.00 0.00 0.69 80 1012.0
20260905084821 76 21 0.0 0.0 0.00 0.00 0.69 80 1011.9